Home   Weather   Denver   Past weeks

Flag for USA Past Weather in Denver, Colorado, USA — Yesterday and Last 2 Weeks

Now
79 °F

Scattered clouds.


Feels Like: 78 °F
Forecast: 50 / 77 °F
Wind: No wind

Location: Buckley Air Force Base

Current Time: Oct 1, 2016 at 4:21:24 PM

Latest Report: Oct 1, 2016 at 3:58 PM


Visibility: 10 mi

Pressure: 29.88 "Hg (24.91 "Hg at 1593m altitude)

Humidity: 23%

Dew Point: 37 °F

Location of DenverLocation

Past Weather in Denver — Graph

°F

Denver Temperature Yesterday

Maximum temperature yesterday: 74 °F (at 4:58 PM)
Minimum temperature yesterday: 54 °F (at 11:58 PM)
Average temperature yesterday: 62 °F

High & Low Weather Summary for the Past Weeks

 TemperatureHumidityPressure
High89 °F (Sep 19, 4:58 PM)100% (Sep 22, 7:59 AM)30.40 "Hg (Sep 22, 7:59 AM)
Low41 °F (Sep 25, 6:58 AM)9% (Sep 19, 1:58 PM)29.46 "Hg (Sep 23, 4:58 PM)
Average64 °F38%29.99 "Hg
* Reported Sep 16 2:58 PM — Oct 1 2:58 PM, Denver, Weather by CustomWeather, © 2016

Note: Actual official high and low records may vary slightly from our data, if they occured in-between our weather recording intervals... More about our weather records

Advertising

Denver Weather History for the Previous 24 Hours

Scroll right to see more
 ConditionsComfort  
Time TempWeatherWind HumidityBarometerVisibility
2:58 PM
Sat, Oct 1
78 °FScattered clouds.6 mph23%29.88 "Hg10 mi
1:58 PM77 °FScattered clouds.6 mph26%29.89 "Hg10 mi
12:58 PM76 °FPassing clouds.9 mph28%29.92 "Hg10 mi
11:58 AM74 °FPassing clouds.7 mph31%29.96 "Hg10 mi
10:58 AM70 °FPassing clouds.1 mph37%29.99 "Hg10 mi
9:58 AM66 °FPassing clouds.2 mph42%30.00 "Hg10 mi
8:58 AM61 °FPassing clouds.6 mph54%30.01 "Hg10 mi
7:58 AM54 °FPassing clouds.7 mph71%30.03 "Hg10 mi
6:58 AM50 °FPassing clouds.6 mph80%30.01 "Hg10 mi
5:58 AM49 °FPassing clouds.8 mph83%30.01 "Hg10 mi
4:58 AM50 °FPassing clouds.8 mph80%29.99 "Hg10 mi
3:58 AM51 °FPassing clouds.8 mph80%30.01 "Hg10 mi
2:58 AM52 °FPassing clouds.6 mph78%30.01 "Hg10 mi
1:58 AM53 °FPassing clouds.8 mph76%30.00 "Hg10 mi
12:58 AM53 °FPassing clouds.9 mph78%30.01 "Hg10 mi
11:58 PM
Fri, Sep 30
54 °FPassing clouds.7 mph77%30.02 "Hg10 mi
10:58 PM56 °FPassing clouds.8 mph75%30.05 "Hg10 mi
9:58 PM57 °FPassing clouds.8 mph73%30.05 "Hg10 mi
8:58 PM59 °FPassing clouds.6 mph63%30.06 "Hg10 mi
7:58 PM61 °FPartly cloudy.10 mph55%30.03 "Hg10 mi
6:58 PM66 °FPassing clouds.2 mph44%30.02 "Hg10 mi
5:58 PM69 °FBroken clouds.6 mph40%30.02 "Hg10 mi
4:58 PM74 °FPartly sunny.5 mph34%30.00 "Hg10 mi
Weather by CustomWeather, © 2016

See weather overviewHow to use our weather pages